Weather in Yermakovo

Russia / Yaroslavl Oblast     58°19′19″N   41°00′33″E
temp.,
°C
wind,
m/s
gust,
m/s
humid.,
%
clouds,
%
prec.,
mm/h
press.,
hPa
HPBL,
m
26 may, thu
thu2600:00+4w269098 0.0 1010123
03:00+1wnw249489 0.0 100961
06:00+4w24865 0.0 1008151
09:00+10w345315 0.0 10071368
12:00+11wnw244664 0.0 10061597
15:00+14sw2441100 0.0 10052029
18:00+12sw34616 0.1 1004929
21:00+6sse22865 0.1 100327
27 may, fri
fri2700:00+4se249611 0.0 100169
03:00+5e2692100 0.0 999143
06:00+8ese3688100 0.0 998220
09:00+10sse2379100 0.0 997381
12:00+14nw0168100 0.0 997784
15:00+14wsw2272100 1.1 997823
18:00+11sse2589100 1.8 997124
21:00+9ssw1298100 3.8 99741
28 may, sat
sat2800:00+9ssw25100100 4.1 997216
03:00+9sw2599100 6.4 997172
06:00+8sw249630 0.1 997213
09:00+12ssw35744 0.1 996778
12:00+16ssw445262 0.3 9951815
15:00+9sw5995100 5.1 997685
18:00+10sw489099 1.9 998806
21:00+6sw399654 2.4 1000434
29 may, sun
sun2900:00+6sw379897 0.1 1001430
03:00+8wsw41198100 4.8 1002788
06:00+8sw4996100 0.1 1005531
09:00+10sw478395 0.1 1007804
12:00+13sw4566100 0.4 10081279
15:00+15wsw355617 1.1 10091609
18:00+13sw36785 0.9 1011833
21:00+9s239456 1.1 101348
30 may, mon
mon3000:00+7ssw22965 0.0 101543
03:00+6ssw25975 0.0 1017103
06:00+9ssw279375 0.0 1018217
09:00+14ssw467045 0.0 1019777
12:00+17sw476158 0.5 10191446
15:00+18sw465872 1.1 10191458
18:00+15sw238197 0.8 102097
21:00+13ssw2290100 0.9 102135